This is the latest recevied weather packets stored in our database for station/object SV9TNF-57. If no packets are shown the sender has not sent any weather packets the latest 10 day(s).
| Time | Temp. | Humidity | Pressure | Rain* | Wind** | Luminosity | Snow |
|---|---|---|---|---|---|---|---|
| 1787895114 | 30.56° C | 44% | 995.3 hPa | 0 mm | 0 m/s | - | - |
| 1787894813 | 30° C | 45% | 995.5 hPa | 0 mm | 0 m/s | - | - |
| 1787894513 | 30.56° C | 44% | 995.3 hPa | 0 mm | 0 m/s | - | - |
| 1787894213 | 30° C | 45% | 995.5 hPa | 0 mm | 0 m/s | - | - |
| 1787893913 | 29.44° C | 45% | 995 hPa | 0 mm | 0 m/s | - | - |
| 1787893613 | 29.44° C | 46% | 994.9 hPa | 0 mm | 0 m/s | - | - |
| 1787893313 | 28.89° C | 47% | 995.1 hPa | 0 mm | 0 m/s | - | - |
| 1787893013 | 28.33° C | 48% | 995.2 hPa | 0 mm | 0 m/s | - | - |
| 1787892713 | 28.33° C | 48% | 995.4 hPa | 0 mm | 0 m/s | - | - |
| 1787892412 | 27.78° C | 49% | 995.3 hPa | 0 mm | 0 m/s | - | - |
| 1787892112 | 27.78° C | 49% | 995.3 hPa | 0 mm | 0 m/s | - | - |
| 1787891812 | 27.78° C | 48% | 995.1 hPa | 0 mm | 3.13 m/s, 297° | - | - |
| 1787891512 | 27.78° C | 49% | 995.1 hPa | 0 mm | 2.68 m/s, 290° | - | - |
| 1787891212 | 27.78° C | 49% | 995.1 hPa | 0 mm | 2.24 m/s, 259° | - | - |
| 1787890912 | 27.78° C | 49% | 995.1 hPa | 0 mm | 0.89 m/s, 262° | - | - |
| 1787890612 | 27.78° C | 49% | 995.2 hPa | 0 mm | 0 m/s | - | - |
| 1787890312 | 27.78° C | 50% | 995.2 hPa | 0 mm | 0 m/s | - | - |
| 1787890012 | 27.78° C | 50% | 995.1 hPa | 0 mm | 1.79 m/s, 287° | - | - |
| 1787889712 | 27.78° C | 49% | 995 hPa | 0 mm | 0.89 m/s, 313° | - | - |
| 1787889411 | 27.78° C | 49% | 994.9 hPa | 0 mm | 0 m/s | - | - |
| 1787889112 | 27.78° C | 48% | 995 hPa | 0 mm | 0.89 m/s, 276° | - | - |
| 1787888811 | 27.78° C | 49% | 995 hPa | 0 mm | 2.68 m/s, 280° | - | - |
| 1787888511 | 27.22° C | 50% | 994.8 hPa | 0 mm | 3.58 m/s, 270° | - | - |
| 1787888211 | 27.78° C | 50% | 995.1 hPa | 0 mm | 1.79 m/s, 315° | - | - |
| 1787887911 | 27.78° C | 49% | 995.2 hPa | 0 mm | 0 m/s | - | - |
* Rain latest hour (hover to see other rain measurements)
** Current wind speed in m/s (hover to see current wind gust speed)